Home   Weather   Easter Island   Past weeks
Flag for Chile

Past Weather in Easter Island, Chile — Yesterday and Last 2 Weeks

Now
75 °F

Scattered clouds.


Feels Like: 77 °F
Forecast: 78 / 69 °F
Wind: 9 mph from East

Location: Isla De Pascua

Current Time: Jan 19, 2019 at 9:49:51 pm

Latest Report: Jan 19, 2019 at 9:00 pm


Visibility: N/A

Pressure: 30.18 "Hg

Humidity: 69%

Dew Point: 64 °F

Location of Easter IslandLocation

Past Weather in Easter Island — Graph

°F

Easter Island Temperature Yesterday

Maximum temperature yesterday: 81 °F (at 2:00 pm)
Minimum temperature yesterday: 70 °F (at 7:00 am)
Average temperature yesterday: 75 °F

High & Low Weather Summary for the Past Weeks

 TemperatureHumidityPressure
High81 °F (Jan 6, 2:00 pm)94% (Jan 9, 12:00 am)30.30 "Hg (Jan 9, 12:00 am)
Low64 °F (Jan 11, 4:00 am)51% (Jan 6, 2:00 pm)30.07 "Hg (Jan 12, 6:00 am)
Average73 °F77%30.20 "Hg
* Reported Jan 4 8:00 pm — Jan 19 8:00 pm, Easter Island. Weather by CustomWeather, © 2019

Note: Actual official high and low records may vary slightly from our data, if they occured in-between our weather recording intervals... More about our weather records

Advertising

Easter Island Weather History for the Previous 24 Hours

Scroll right to see more
 ConditionsComfort  
Time TempWeatherWind HumidityBarometerVisibility
8:00 pm
Sat, Jan 19
75 °FScattered clouds.10 mph69%30.15 "HgN/A
6:00 pm79 °FBroken clouds.16 mph70%30.15 "HgN/A
5:00 pm81 °FScattered clouds.16 mph58%30.18 "HgN/A
4:00 pm79 °FScattered clouds.15 mph61%30.18 "HgN/A
3:00 pm75 °FBroken clouds.8 mph74%30.21 "HgN/A
2:00 pm81 °FScattered clouds.14 mph58%30.21 "HgN/A
1:00 pm79 °FBroken clouds.12 mph61%30.21 "HgN/A
12:00 pm73 °FRain showers. Broken clouds.8 mph78%30.24 "HgN/A
11:00 am72 °FBroken clouds.9 mph83%30.24 "HgN/A
10:00 am73 °FBroken clouds.2 mph78%30.21 "HgN/A
9:00 am70 °FSprinkles. Broken clouds.2 mph88%30.21 "HgN/A
8:00 am70 °FPassing clouds.5 mph88%30.18 "HgN/A
7:00 am70 °FPartly cloudy.5 mph83%30.18 "HgN/A
6:00 am70 °FPartly cloudy.3 mph78%30.18 "HgN/A
5:00 am70 °FPassing clouds.3 mph78%30.18 "HgN/A
4:00 am72 °FPassing clouds.5 mph78%30.21 "HgN/A
3:00 am72 °FPassing clouds.6 mph83%30.24 "HgN/A
2:00 am72 °FPassing clouds.1 mph83%30.24 "HgN/A
1:00 am72 °FPassing clouds.7 mph78%30.27 "HgN/A
12:00 am73 °FPartly cloudy.6 mph78%30.27 "HgN/A
11:00 pm
Fri, Jan 18
72 °FPassing clouds.3 mph83%30.24 "HgN/A
10:00 pm72 °FBroken clouds.3 mph78%30.24 "HgN/A
9:00 pm75 °FScattered clouds.5 mph69%30.21 "HgN/A
Weather by CustomWeather, © 2019

See weather overview